EWG5LB LGRP-EDDE

Flight info

Callsign EWG5LB
Flight time 2h 58m
Altitude 34000
Route VANES UM601 ADESO UN133 ATFIR DCT OGOTA/N0455F360 N133 LOMOS DCT DITAX DCT ERGUZ DCT NIT DCT VOZ DCT RAPET T843 LASGA M726 NARUS NARUS1R
Aircraft A320/M-SDE3FGHIRWY/LB1

Departure

Time 2026-04-13 12:13
Airport Rhodes International Airport "Diagoras" (LGRP)

Arrival

Time 2026-04-13 15:11
Airport Erfurt-Weimar Airport (EDDE)
Time Latitude Longitude Altitude Speed Heading
2026-04-13 11:48 36.40357 28.09087 29 ft 0 kts 160°
2026-04-13 12:06 36.40372 28.09080 29 ft 2 kts 160°
2026-04-13 12:06 36.40388 28.09073 29 ft 2 kts 160°
2026-04-13 12:06 36.40405 28.09072 29 ft 2 kts 228°
2026-04-13 12:06 36.40414 28.09089 29 ft 2 kts 238°
2026-04-13 12:07 36.40424 28.09107 29 ft 2 kts 238°
2026-04-13 12:07 36.40428 28.09119 29 ft 0 kts 251°
2026-04-13 12:07 36.40427 28.09115 29 ft 2 kts 251°
2026-04-13 12:07 36.40418 28.09080 29 ft 7 kts 252°
2026-04-13 12:08 36.40402 28.09019 29 ft 8 kts 255°
2026-04-13 12:08 36.40396 28.08932 29 ft 13 kts 272°
2026-04-13 12:08 36.40401 28.08799 28 ft 18 kts 266°
2026-04-13 12:08 36.40367 28.08663 28 ft 16 kts 250°
2026-04-13 12:09 36.40319 28.08500 28 ft 21 kts 250°
2026-04-13 12:09 36.40271 28.08337 27 ft 19 kts 250°
2026-04-13 12:09 36.40229 28.08193 27 ft 17 kts 249°
2026-04-13 12:09 36.40182 28.08036 26 ft 21 kts 250°
2026-04-13 12:10 36.40134 28.07872 30 ft 19 kts 250°
2026-04-13 12:10 36.40088 28.07718 24 ft 19 kts 249°
2026-04-13 12:10 36.40044 28.07567 21 ft 18 kts 250°
2026-04-13 12:10 36.40004 28.07431 23 ft 18 kts 250°
2026-04-13 12:11 36.39958 28.07273 22 ft 19 kts 250°
2026-04-13 12:11 36.39916 28.07132 24 ft 16 kts 250°
2026-04-13 12:11 36.39889 28.07042 26 ft 9 kts 250°
2026-04-13 12:11 36.39893 28.06975 27 ft 7 kts 308°
2026-04-13 12:12 36.39937 28.06948 30 ft 7 kts 341°
2026-04-13 12:12 36.39982 28.06929 27 ft 6 kts 340°
2026-04-13 12:12 36.40023 28.06910 27 ft 5 kts 340°
2026-04-13 12:12 36.40046 28.06952 27 ft 16 kts 70°
2026-04-13 12:13 36.40171 28.07379 21 ft 87 kts 69°
2026-04-13 12:13 36.40443 28.08301 28 ft 139 kts 70°
2026-04-13 12:13 36.40807 28.09567 281 ft 160 kts 68°
2026-04-13 12:13 36.41192 28.10866 956 ft 161 kts 65°
2026-04-13 12:14 36.41721 28.12121 1527 ft 171 kts 60°
2026-04-13 12:14 36.42355 28.13455 1851 ft 193 kts 60°
2026-04-13 12:14 36.43085 28.14962 2089 ft 214 kts 60°
2026-04-13 12:14 36.43879 28.16610 2534 ft 228 kts 60°
2026-04-13 12:15 36.44692 28.18308 3269 ft 231 kts 60°
2026-04-13 12:15 36.45516 28.20040 3996 ft 234 kts 60°
2026-04-13 12:15 36.46340 28.21781 4782 ft 234 kts 60°
2026-04-13 12:15 36.47117 28.23575 5406 ft 242 kts 70°
2026-04-13 12:16 36.47298 28.25737 5702 ft 267 kts 100°
2026-04-13 12:16 36.46457 28.27882 6005 ft 292 kts 133°
2026-04-13 12:16 36.44713 28.29258 6277 ft 316 kts 163°
2026-04-13 12:16 36.42463 28.29405 6508 ft 338 kts 192°
2026-04-13 12:17 36.40282 28.28158 6667 ft 358 kts 220°
2026-04-13 12:17 36.38692 28.25713 6848 ft 374 kts 245°
2026-04-13 12:17 36.37828 28.22654 7364 ft 379 kts 257°
2026-04-13 12:17 36.37184 28.19469 8054 ft 382 kts 257°
2026-04-13 12:18 36.36540 28.16263 8744 ft 384 kts 258°
2026-04-13 12:18 36.35859 28.13098 9424 ft 387 kts 255°
2026-04-13 12:18 36.35128 28.09883 10109 ft 388 kts 258°
2026-04-13 12:18 36.34648 28.06587 10719 ft 389 kts 266°
2026-04-13 12:19 36.34626 28.03239 11299 ft 389 kts 277°
2026-04-13 12:19 36.35006 27.99908 11907 ft 390 kts 280°
2026-04-13 12:19 36.35436 27.96578 12510 ft 392 kts 281°
2026-04-13 12:19 36.35886 27.93240 13088 ft 393 kts 281°
2026-04-13 12:20 36.36342 27.89886 13666 ft 395 kts 281°
2026-04-13 12:20 36.36787 27.86564 14183 ft 396 kts 281°
2026-04-13 12:20 36.37228 27.83181 14660 ft 398 kts 280°
2026-04-13 12:20 36.37662 27.79780 15132 ft 400 kts 280°
2026-04-13 12:21 36.38093 27.76364 15595 ft 402 kts 280°
2026-04-13 12:21 36.38527 27.72931 16047 ft 404 kts 280°
2026-04-13 12:21 36.38965 27.69473 16503 ft 406 kts 280°
2026-04-13 12:21 36.39403 27.66007 16945 ft 408 kts 280°
2026-04-13 12:22 36.39844 27.62521 17385 ft 410 kts 280°
2026-04-13 12:22 36.40286 27.59018 17816 ft 412 kts 280°
2026-04-13 12:22 36.40721 27.55548 18235 ft 414 kts 280°
2026-04-13 12:22 36.41162 27.52011 18608 ft 416 kts 279°
2026-04-13 12:23 36.41603 27.48452 18963 ft 418 kts 279°
2026-04-13 12:23 36.42045 27.44885 19313 ft 419 kts 279°
2026-04-13 12:23 36.42486 27.41300 19653 ft 421 kts 279°
2026-04-13 12:23 36.42928 27.37697 19963 ft 423 kts 279°
2026-04-13 12:24 36.43373 27.34074 20274 ft 425 kts 279°
2026-04-13 12:24 36.43820 27.30444 20606 ft 426 kts 279°
2026-04-13 12:24 36.44264 27.26846 20938 ft 428 kts 279°
2026-04-13 12:24 36.44714 27.23186 21250 ft 429 kts 279°
2026-04-13 12:25 36.45163 27.19514 21556 ft 431 kts 279°
2026-04-13 12:25 36.45610 27.15824 21840 ft 433 kts 279°
2026-04-13 12:25 36.46055 27.12122 22115 ft 434 kts 279°
2026-04-13 12:25 36.46500 27.08404 22387 ft 436 kts 279°
2026-04-13 12:26 36.46950 27.04667 22669 ft 438 kts 279°
2026-04-13 12:26 36.47408 27.00921 22946 ft 439 kts 279°
2026-04-13 12:26 36.47866 26.97214 23204 ft 441 kts 279°
2026-04-13 12:26 36.48330 26.93444 23457 ft 442 kts 279°
2026-04-13 12:27 36.48791 26.89660 23730 ft 444 kts 279°
2026-04-13 12:27 36.49699 26.82099 24382 ft 441 kts 278°
2026-04-13 12:27 36.50144 26.78331 24716 ft 440 kts 278°
2026-04-13 12:28 36.50585 26.74577 25049 ft 438 kts 278°
2026-04-13 12:28 36.51026 26.70831 25387 ft 437 kts 278°
2026-04-13 12:28 36.51464 26.67099 25729 ft 436 kts 278°
2026-04-13 12:28 36.51899 26.63376 26079 ft 435 kts 278°
2026-04-13 12:29 36.52362 26.59723 26435 ft 433 kts 282°
2026-04-13 12:29 36.53284 26.56165 26760 ft 433 kts 292°
2026-04-13 12:29 36.54765 26.52909 27090 ft 434 kts 304°
2026-04-13 12:29 36.56762 26.50080 27432 ft 437 kts 315°
2026-04-13 12:30 36.59200 26.47802 27777 ft 441 kts 326°
2026-04-13 12:30 36.61949 26.46082 28131 ft 443 kts 331°
2026-04-13 12:30 36.64739 26.44456 28499 ft 442 kts 330°
2026-04-13 12:30 36.67513 26.42830 28886 ft 440 kts 330°
2026-04-13 12:31 36.70241 26.41229 29236 ft 439 kts 330°
2026-04-13 12:31 36.72999 26.39608 29607 ft 438 kts 330°
2026-04-13 12:31 36.75749 26.37992 29995 ft 436 kts 330°
2026-04-13 12:31 36.78490 26.36381 30332 ft 435 kts 330°
2026-04-13 12:32 36.81225 26.34773 30628 ft 434 kts 330°
2026-04-13 12:32 36.83956 26.33170 30924 ft 433 kts 330°
2026-04-13 12:32 36.86684 26.31568 31220 ft 432 kts 330°
2026-04-13 12:32 36.89403 26.29968 31510 ft 432 kts 330°
2026-04-13 12:33 36.92113 26.28367 31806 ft 431 kts 330°
2026-04-13 12:33 36.94781 26.26784 32094 ft 430 kts 330°
2026-04-13 12:33 36.97478 26.25183 32394 ft 429 kts 330°
2026-04-13 12:33 37.00167 26.23581 32693 ft 428 kts 329°
2026-04-13 12:34 37.02843 26.21961 32976 ft 427 kts 329°
2026-04-13 12:34 37.05508 26.20329 33256 ft 426 kts 329°
2026-04-13 12:34 37.08165 26.18695 33530 ft 425 kts 329°
2026-04-13 12:34 37.10820 26.17062 33822 ft 425 kts 329°
2026-04-13 12:35 37.13473 26.15434 34082 ft 424 kts 329°
2026-04-13 12:35 37.16094 26.13829 34148 ft 427 kts 329°
2026-04-13 12:35 37.21459 26.10546 34155 ft 430 kts 329°
2026-04-13 12:36 37.26844 26.07248 34159 ft 431 kts 329°
2026-04-13 12:36 37.32234 26.03937 34151 ft 431 kts 329°
2026-04-13 12:37 37.37629 26.00620 34159 ft 432 kts 329°
2026-04-13 12:37 37.42988 25.97325 34156 ft 432 kts 329°
2026-04-13 12:38 37.48379 25.93999 34167 ft 432 kts 329°
2026-04-13 12:38 37.53771 25.90662 34166 ft 431 kts 329°
2026-04-13 12:39 37.59157 25.87324 34158 ft 432 kts 329°
2026-04-13 12:39 37.64511 25.84010 34155 ft 431 kts 329°
2026-04-13 12:40 37.69894 25.80653 34154 ft 431 kts 328°
2026-04-13 12:40 37.75277 25.77291 34154 ft 432 kts 329°
2026-04-13 12:41 37.80661 25.73935 34161 ft 432 kts 329°
2026-04-13 12:41 37.86046 25.70570 34154 ft 432 kts 329°
2026-04-13 12:42 37.91394 25.67223 34156 ft 432 kts 329°
2026-04-13 12:42 37.96780 25.63846 34164 ft 432 kts 328°
2026-04-13 12:43 38.02166 25.60464 34174 ft 432 kts 328°
2026-04-13 12:43 38.07562 25.57081 34165 ft 433 kts 328°
2026-04-13 12:44 38.12916 25.53711 34159 ft 433 kts 328°
2026-04-13 12:44 38.18308 25.50304 34157 ft 433 kts 328°
2026-04-13 12:45 38.23698 25.46892 34154 ft 433 kts 328°
2026-04-13 12:45 38.29093 25.43481 34164 ft 433 kts 328°
2026-04-13 12:46 38.34454 25.40083 34163 ft 433 kts 328°
2026-04-13 12:46 38.39848 25.36648 34161 ft 433 kts 328°
2026-04-13 12:47 38.45250 25.33215 34160 ft 434 kts 328°
2026-04-13 12:47 38.50650 25.29783 34166 ft 434 kts 328°
2026-04-13 12:48 38.56052 25.26332 34165 ft 434 kts 328°
2026-04-13 12:48 38.61426 25.22903 34157 ft 434 kts 328°
2026-04-13 12:49 38.66833 25.19442 34155 ft 434 kts 328°
2026-04-13 12:49 38.72233 25.15974 34158 ft 434 kts 328°
2026-04-13 12:50 38.77632 25.12496 34174 ft 434 kts 328°
2026-04-13 12:50 38.83000 25.09041 34166 ft 434 kts 328°
2026-04-13 12:51 38.88399 25.05558 34162 ft 434 kts 328°
2026-04-13 12:51 38.93799 25.02068 34160 ft 435 kts 328°
2026-04-13 12:52 38.99202 24.98574 34153 ft 435 kts 328°
2026-04-13 12:52 39.04569 24.95095 34164 ft 435 kts 328°
2026-04-13 12:53 39.09980 24.91583 34161 ft 436 kts 328°
2026-04-13 12:53 39.15429 24.88144 34159 ft 437 kts 329°
2026-04-13 12:54 39.20921 24.84781 34159 ft 437 kts 329°
2026-04-13 12:54 39.26411 24.81414 34167 ft 437 kts 329°
2026-04-13 12:55 39.31854 24.78028 34162 ft 437 kts 328°
2026-04-13 12:55 39.37333 24.74597 34160 ft 438 kts 328°
2026-04-13 12:56 39.42817 24.71171 34163 ft 438 kts 329°
2026-04-13 12:56 39.48306 24.67744 34164 ft 438 kts 329°
2026-04-13 12:57 39.53755 24.64332 34173 ft 438 kts 328°
2026-04-13 12:57 39.59245 24.60885 34172 ft 438 kts 328°
2026-04-13 12:58 39.64731 24.57430 34168 ft 439 kts 328°
2026-04-13 12:58 39.70192 24.53993 34171 ft 439 kts 328°
2026-04-13 12:59 39.75682 24.50534 34179 ft 439 kts 328°
2026-04-13 12:59 39.81178 24.47065 34182 ft 439 kts 328°
2026-04-13 13:00 39.86670 24.43586 34178 ft 439 kts 328°
2026-04-13 13:00 39.92161 24.40103 34182 ft 439 kts 328°
2026-04-13 13:01 39.97617 24.36638 34200 ft 439 kts 328°
2026-04-13 13:01 40.03103 24.33144 34193 ft 439 kts 328°
2026-04-13 13:02 40.08595 24.29648 34187 ft 439 kts 328°
2026-04-13 13:02 40.14081 24.26147 34185 ft 439 kts 328°
2026-04-13 13:03 40.19535 24.22657 34188 ft 439 kts 328°
2026-04-13 13:03 40.25025 24.19130 34449 ft 439 kts 328°
2026-04-13 13:04 40.27765 24.17366 34716 ft 439 kts 328°
2026-04-13 13:04 40.30499 24.15610 34968 ft 438 kts 328°
2026-04-13 13:04 40.33236 24.13856 35153 ft 437 kts 328°
2026-04-13 13:04 40.35963 24.12106 35391 ft 436 kts 328°
2026-04-13 13:05 40.38689 24.10352 35624 ft 436 kts 328°
2026-04-13 13:05 40.41405 24.08604 35830 ft 435 kts 328°
2026-04-13 13:05 40.44081 24.06877 36041 ft 434 kts 328°
2026-04-13 13:05 40.46797 24.05118 36171 ft 435 kts 328°
2026-04-13 13:06 40.52235 24.01591 36194 ft 436 kts 328°
2026-04-13 13:06 40.57676 23.98078 36196 ft 437 kts 330°
2026-04-13 13:07 40.63581 23.95834 36198 ft 448 kts 344°
2026-04-13 13:07 40.69678 23.94404 36195 ft 448 kts 344°
2026-04-13 13:08 40.75818 23.92948 36195 ft 448 kts 344°
2026-04-13 13:08 40.81959 23.91480 36195 ft 449 kts 344°
2026-04-13 13:09 40.88105 23.90004 36211 ft 449 kts 344°
2026-04-13 13:09 40.94209 23.88542 36208 ft 449 kts 344°
2026-04-13 13:10 41.00359 23.87072 36201 ft 449 kts 344°
2026-04-13 13:10 41.06513 23.85600 36194 ft 449 kts 344°
2026-04-13 13:11 41.12664 23.84113 36203 ft 449 kts 344°
2026-04-13 13:11 41.18814 23.82626 36196 ft 449 kts 344°
2026-04-13 13:12 41.24920 23.81153 36189 ft 449 kts 344°
2026-04-13 13:12 41.31063 23.79670 36187 ft 449 kts 345°
2026-04-13 13:13 41.37217 23.78186 36183 ft 449 kts 345°
2026-04-13 13:13 41.43375 23.76700 36178 ft 450 kts 345°
2026-04-13 13:14 41.49496 23.75221 36173 ft 450 kts 345°
2026-04-13 13:14 41.55658 23.73738 36168 ft 450 kts 345°
2026-04-13 13:15 41.61828 23.72259 36164 ft 451 kts 345°
2026-04-13 13:15 41.67998 23.70767 36159 ft 451 kts 345°
2026-04-13 13:16 41.74175 23.69268 36155 ft 451 kts 345°
2026-04-13 13:16 41.80314 23.67769 36146 ft 451 kts 345°
2026-04-13 13:17 41.86487 23.66258 36148 ft 451 kts 345°
2026-04-13 13:17 41.92668 23.64747 36152 ft 451 kts 345°
2026-04-13 13:18 41.98850 23.63242 36151 ft 452 kts 346°
2026-04-13 13:18 42.04989 23.61753 36140 ft 451 kts 345°
2026-04-13 13:19 42.11163 23.60235 36136 ft 451 kts 345°
2026-04-13 13:19 42.17343 23.58709 36135 ft 451 kts 345°
2026-04-13 13:20 42.23524 23.57189 36137 ft 452 kts 346°
2026-04-13 13:20 42.29671 23.55680 36138 ft 452 kts 346°
2026-04-13 13:21 42.35856 23.54150 36141 ft 452 kts 345°
2026-04-13 13:21 42.42041 23.52614 36144 ft 452 kts 346°
2026-04-13 13:22 42.48224 23.51077 36145 ft 452 kts 345°
2026-04-13 13:22 42.54407 23.49542 36136 ft 452 kts 345°
2026-04-13 13:23 42.60555 23.48019 36150 ft 452 kts 346°
2026-04-13 13:23 42.66750 23.46467 36136 ft 453 kts 346°
2026-04-13 13:24 42.72943 23.44912 36128 ft 453 kts 345°
2026-04-13 13:24 42.79106 23.43368 36116 ft 453 kts 345°
2026-04-13 13:25 42.85309 23.41809 36120 ft 453 kts 345°
2026-04-13 13:26 42.94606 23.39460 36130 ft 453 kts 346°
2026-04-13 13:26 43.00810 23.37890 36123 ft 454 kts 345°
2026-04-13 13:27 43.06978 23.36336 36124 ft 454 kts 345°
2026-04-13 13:27 43.13180 23.34769 36121 ft 454 kts 345°
2026-04-13 13:28 43.19392 23.33194 36133 ft 454 kts 345°
2026-04-13 13:28 43.25682 23.32153 36132 ft 457 kts 351°
2026-04-13 13:29 43.32014 23.31378 36132 ft 457 kts 351°
2026-04-13 13:29 43.38308 23.30596 36164 ft 456 kts 351°
2026-04-13 13:29 43.41473 23.30203 36317 ft 457 kts 351°
2026-04-13 13:30 43.44636 23.29811 36483 ft 457 kts 351°
2026-04-13 13:30 43.47799 23.29420 36639 ft 456 kts 351°
2026-04-13 13:30 43.50964 23.29023 36801 ft 456 kts 351°
2026-04-13 13:30 43.54123 23.28623 36970 ft 456 kts 351°
2026-04-13 13:31 43.57282 23.28226 37129 ft 455 kts 351°
2026-04-13 13:31 43.60436 23.27836 37291 ft 455 kts 351°
2026-04-13 13:31 43.63585 23.27451 37449 ft 454 kts 351°
2026-04-13 13:31 43.66692 23.27070 37623 ft 454 kts 351°
2026-04-13 13:32 43.69839 23.26683 37787 ft 454 kts 351°
2026-04-13 13:32 43.72981 23.26290 37955 ft 453 kts 351°
2026-04-13 13:32 43.76123 23.25895 38111 ft 453 kts 351°
2026-04-13 13:33 43.82393 23.24962 38139 ft 451 kts 345°
2026-04-13 13:33 43.88297 23.22310 38133 ft 445 kts 335°
2026-04-13 13:34 43.94032 23.19195 38136 ft 446 kts 335°
2026-04-13 13:34 43.99804 23.16066 38130 ft 445 kts 335°
2026-04-13 13:35 44.05567 23.12925 38137 ft 445 kts 335°
2026-04-13 13:35 44.11338 23.09759 38130 ft 446 kts 335°
2026-04-13 13:36 44.17085 23.06604 38129 ft 447 kts 335°
2026-04-13 13:36 44.22876 23.03429 38143 ft 447 kts 335°
2026-04-13 13:37 44.28659 23.00250 38151 ft 447 kts 335°
2026-04-13 13:37 44.34436 22.97073 38143 ft 447 kts 335°
2026-04-13 13:38 44.40221 22.93889 38133 ft 447 kts 335°
2026-04-13 13:38 44.45961 22.90699 38133 ft 447 kts 335°
2026-04-13 13:39 44.51746 22.87474 38141 ft 447 kts 335°
2026-04-13 13:39 44.57534 22.84258 38137 ft 448 kts 335°
2026-04-13 13:40 44.63325 22.81048 38138 ft 447 kts 335°
2026-04-13 13:40 44.69070 22.77852 38142 ft 447 kts 335°
2026-04-13 13:41 44.74837 22.74624 38143 ft 446 kts 335°
2026-04-13 13:41 44.80600 22.71392 38138 ft 446 kts 335°
2026-04-13 13:42 44.86356 22.68159 38141 ft 445 kts 335°
2026-04-13 13:42 44.92108 22.64917 38141 ft 445 kts 335°
2026-04-13 13:43 44.97813 22.61699 38134 ft 445 kts 335°
2026-04-13 13:43 45.03557 22.58454 38122 ft 445 kts 335°
2026-04-13 13:44 45.09302 22.55200 38125 ft 444 kts 335°
2026-04-13 13:44 45.15040 22.51941 38107 ft 444 kts 335°
2026-04-13 13:45 45.20727 22.48705 38115 ft 443 kts 335°
2026-04-13 13:45 45.26448 22.45448 38093 ft 443 kts 335°
2026-04-13 13:46 45.32172 22.42173 38080 ft 443 kts 335°
2026-04-13 13:46 45.37890 22.38893 38076 ft 443 kts 335°
2026-04-13 13:47 45.43558 22.35622 38071 ft 441 kts 332°
2026-04-13 13:47 45.48632 22.30909 38062 ft 433 kts 315°
2026-04-13 13:48 45.52780 22.24707 38049 ft 432 kts 310°
2026-04-13 13:48 45.56882 22.18426 38027 ft 433 kts 310°
2026-04-13 13:49 45.60965 22.12168 38022 ft 434 kts 310°
2026-04-13 13:49 45.65069 22.05854 38051 ft 433 kts 310°
2026-04-13 13:50 45.69163 21.99532 38036 ft 433 kts 310°
2026-04-13 13:50 45.73257 21.93204 38032 ft 434 kts 310°
2026-04-13 13:51 45.77352 21.86861 38032 ft 434 kts 310°
2026-04-13 13:51 45.81418 21.80545 38040 ft 434 kts 310°
2026-04-13 13:52 45.85502 21.74171 38029 ft 434 kts 310°
2026-04-13 13:52 45.89594 21.67779 38025 ft 435 kts 310°
2026-04-13 13:53 45.93694 21.61374 38035 ft 436 kts 310°
2026-04-13 13:53 45.97757 21.54990 38045 ft 435 kts 310°
2026-04-13 13:54 46.01837 21.48564 38071 ft 435 kts 310°
2026-04-13 13:54 46.05918 21.42130 38054 ft 435 kts 310°
2026-04-13 13:55 46.10004 21.35676 38055 ft 436 kts 310°
2026-04-13 13:55 46.14086 21.29213 38059 ft 436 kts 310°
2026-04-13 13:56 46.18144 21.22779 38061 ft 436 kts 310°
2026-04-13 13:56 46.22229 21.16292 38061 ft 437 kts 310°
2026-04-13 13:57 46.26320 21.09779 38061 ft 437 kts 310°
2026-04-13 13:57 46.30401 21.03261 38060 ft 437 kts 310°
2026-04-13 13:58 46.34446 20.96775 38058 ft 437 kts 310°
2026-04-13 13:58 46.38520 20.90233 38061 ft 437 kts 310°
2026-04-13 13:59 46.42591 20.83683 38043 ft 438 kts 310°
2026-04-13 13:59 46.46656 20.77114 38035 ft 438 kts 309°
2026-04-13 14:00 46.50696 20.70564 38041 ft 439 kts 309°
2026-04-13 14:00 46.54774 20.63965 38052 ft 439 kts 310°
2026-04-13 14:01 46.58848 20.57359 38062 ft 439 kts 309°
2026-04-13 14:01 46.62914 20.50725 38067 ft 439 kts 309°
2026-04-13 14:02 46.66975 20.44080 38062 ft 440 kts 309°
2026-04-13 14:02 46.71012 20.37464 38065 ft 440 kts 309°
2026-04-13 14:03 46.75073 20.30805 38069 ft 440 kts 309°
2026-04-13 14:03 46.79133 20.24131 38075 ft 439 kts 309°
2026-04-13 14:04 46.83176 20.17445 38075 ft 439 kts 309°
2026-04-13 14:04 46.87190 20.10811 38080 ft 438 kts 309°
2026-04-13 14:05 46.91215 20.04138 38081 ft 437 kts 309°
2026-04-13 14:05 46.95229 19.97463 38079 ft 437 kts 309°
2026-04-13 14:06 46.99250 19.90782 38072 ft 438 kts 309°
2026-04-13 14:06 47.03243 19.84123 38070 ft 438 kts 309°
2026-04-13 14:07 47.07486 19.77696 38066 ft 440 kts 314°
2026-04-13 14:07 47.11954 19.71550 38087 ft 440 kts 314°
2026-04-13 14:08 47.16433 19.65403 38059 ft 441 kts 314°
2026-04-13 14:08 47.20887 19.59261 38054 ft 442 kts 314°
2026-04-13 14:09 47.25374 19.53046 38060 ft 443 kts 314°
2026-04-13 14:09 47.29863 19.46813 38070 ft 444 kts 314°
2026-04-13 14:10 47.34352 19.40553 38077 ft 445 kts 314°
2026-04-13 14:10 47.38818 19.34315 38071 ft 446 kts 314°
2026-04-13 14:11 47.43325 19.28011 38076 ft 447 kts 314°
2026-04-13 14:11 47.47844 19.21697 38088 ft 447 kts 314°
2026-04-13 14:12 47.52348 19.15375 38094 ft 446 kts 314°
2026-04-13 14:12 47.56842 19.09029 38092 ft 447 kts 314°
2026-04-13 14:13 47.61306 19.02712 38076 ft 447 kts 313°
2026-04-13 14:13 47.65807 18.96343 38070 ft 448 kts 314°
2026-04-13 14:14 47.72563 18.86754 38067 ft 448 kts 314°
2026-04-13 14:14 47.77061 18.80344 38082 ft 448 kts 314°
2026-04-13 14:15 47.81521 18.73961 38078 ft 448 kts 314°
2026-04-13 14:15 47.86016 18.67523 38069 ft 448 kts 314°
2026-04-13 14:16 47.90510 18.61081 38060 ft 449 kts 314°
2026-04-13 14:16 47.95008 18.54612 38060 ft 449 kts 314°
2026-04-13 14:17 47.99471 18.48159 38059 ft 450 kts 314°
2026-04-13 14:17 48.03978 18.41642 38054 ft 451 kts 313°
2026-04-13 14:18 48.08489 18.35111 38071 ft 451 kts 313°
2026-04-13 14:18 48.12987 18.28562 38063 ft 451 kts 313°
2026-04-13 14:19 48.16723 18.23112 38060 ft 451 kts 313°
2026-04-13 14:19 48.21953 18.15478 38056 ft 452 kts 313°
2026-04-13 14:20 48.26451 18.08883 38054 ft 452 kts 313°
2026-04-13 14:20 48.30469 18.01709 38041 ft 448 kts 299°
2026-04-13 14:21 48.33186 17.95093 38051 ft 448 kts 299°
2026-04-13 14:21 48.36992 17.85823 38067 ft 448 kts 299°
2026-04-13 14:22 48.39714 17.79203 38048 ft 448 kts 299°
2026-04-13 14:22 48.42993 17.71222 38039 ft 448 kts 299°
2026-04-13 14:23 48.46801 17.61930 38040 ft 449 kts 298°
2026-04-13 14:23 48.50064 17.53911 38045 ft 449 kts 299°
2026-04-13 14:24 48.52777 17.47232 38015 ft 450 kts 299°
2026-04-13 14:24 48.56048 17.39168 38009 ft 451 kts 298°
2026-04-13 14:25 48.59316 17.31074 38008 ft 452 kts 298°
2026-04-13 14:25 48.62585 17.22961 38009 ft 452 kts 298°
2026-04-13 14:26 48.65857 17.14834 38012 ft 453 kts 298°
2026-04-13 14:26 48.69099 17.06736 38012 ft 453 kts 298°
2026-04-13 14:27 48.72354 16.98572 38039 ft 453 kts 298°
2026-04-13 14:27 48.75603 16.90410 38039 ft 452 kts 298°
2026-04-13 14:28 48.78844 16.82246 38027 ft 452 kts 298°
2026-04-13 14:28 48.82061 16.74124 38020 ft 453 kts 298°
2026-04-13 14:29 48.85297 16.65920 38010 ft 453 kts 298°
2026-04-13 14:29 48.88535 16.57686 38013 ft 454 kts 298°
2026-04-13 14:30 48.91764 16.49425 38018 ft 455 kts 298°
2026-04-13 14:30 48.94972 16.41212 38018 ft 455 kts 298°
2026-04-13 14:31 48.98210 16.32910 37995 ft 457 kts 298°
2026-04-13 14:31 49.01451 16.24576 37992 ft 458 kts 298°
2026-04-13 14:32 49.04682 16.16216 37996 ft 458 kts 298°
2026-04-13 14:32 49.07915 16.07838 38010 ft 458 kts 297°
2026-04-13 14:33 49.11119 15.99508 38010 ft 458 kts 297°
2026-04-13 14:33 49.14342 15.91100 37993 ft 459 kts 297°
2026-04-13 14:34 49.17564 15.82670 37991 ft 460 kts 297°
2026-04-13 14:34 49.20781 15.74229 37986 ft 460 kts 297°
2026-04-13 14:35 49.23968 15.65820 37989 ft 460 kts 296°
2026-04-13 14:35 49.27183 15.57330 37974 ft 461 kts 297°
2026-04-13 14:36 49.30396 15.48822 37979 ft 461 kts 297°
2026-04-13 14:36 49.33602 15.40292 37965 ft 462 kts 297°
2026-04-13 14:37 49.36782 15.31795 37969 ft 462 kts 297°
2026-04-13 14:37 49.39985 15.23228 37949 ft 464 kts 296°
2026-04-13 14:38 49.43194 15.14623 37953 ft 464 kts 296°
2026-04-13 14:38 49.46398 15.06016 37967 ft 463 kts 296°
2026-04-13 14:39 49.49587 14.97418 37959 ft 463 kts 296°
2026-04-13 14:39 49.52741 14.88864 37966 ft 462 kts 296°
2026-04-13 14:40 49.55341 14.79867 37952 ft 459 kts 289°
2026-04-13 14:40 49.57794 14.70784 37951 ft 460 kts 289°
2026-04-13 14:41 49.60254 14.61687 37942 ft 460 kts 290°
2026-04-13 14:41 49.62695 14.52653 37956 ft 460 kts 289°
2026-04-13 14:42 49.65155 14.43539 37938 ft 460 kts 289°
2026-04-13 14:42 49.67612 14.34402 37927 ft 461 kts 289°
2026-04-13 14:43 49.70060 14.25248 37926 ft 461 kts 289°
2026-04-13 14:43 49.72501 14.16082 37920 ft 461 kts 289°
2026-04-13 14:44 49.74921 14.06971 37935 ft 462 kts 289°
2026-04-13 14:44 49.77354 13.97775 37919 ft 462 kts 289°
2026-04-13 14:45 49.79776 13.88576 37920 ft 462 kts 289°
2026-04-13 14:45 49.82193 13.79355 37906 ft 462 kts 289°
2026-04-13 14:46 49.84581 13.70196 37924 ft 462 kts 289°
2026-04-13 14:46 49.86979 13.60954 37924 ft 462 kts 289°
2026-04-13 14:47 49.89367 13.51731 37918 ft 461 kts 289°
2026-04-13 14:47 49.91746 13.42499 37914 ft 460 kts 288°
2026-04-13 14:48 49.94115 13.33269 37904 ft 461 kts 288°
2026-04-13 14:48 49.96469 13.24091 37901 ft 460 kts 288°
2026-04-13 14:49 49.98825 13.14838 37900 ft 460 kts 288°
2026-04-13 14:49 50.01167 13.05579 37911 ft 460 kts 288°
2026-04-13 14:50 50.03508 12.96314 37915 ft 460 kts 288°
2026-04-13 14:50 50.05836 12.87107 37941 ft 461 kts 288°
2026-04-13 14:51 50.08162 12.77821 37936 ft 460 kts 288°
2026-04-13 14:51 50.10481 12.68526 37931 ft 460 kts 288°
2026-04-13 14:52 50.12795 12.59232 37922 ft 460 kts 288°
2026-04-13 14:52 50.15093 12.49945 37906 ft 459 kts 287°
2026-04-13 14:53 50.17363 12.40700 37903 ft 460 kts 287°
2026-04-13 14:53 50.19798 12.31466 37813 ft 465 kts 297°
2026-04-13 14:54 50.21823 12.27488 37256 ft 472 kts 315°
2026-04-13 14:54 50.24329 12.24157 36710 ft 475 kts 317°
2026-04-13 14:54 50.26857 12.20828 36193 ft 476 kts 317°
2026-04-13 14:54 50.29380 12.17464 35684 ft 478 kts 317°
2026-04-13 14:55 50.31901 12.14061 35100 ft 480 kts 317°
2026-04-13 14:55 50.34436 12.10609 34136 ft 487 kts 317°
2026-04-13 14:55 50.36966 12.07148 33092 ft 492 kts 317°
2026-04-13 14:55 50.39562 12.03598 32016 ft 497 kts 317°
2026-04-13 14:56 50.42177 12.00025 31017 ft 500 kts 317°
2026-04-13 14:56 50.44803 11.96438 30112 ft 501 kts 317°
2026-04-13 14:56 50.47429 11.92846 29071 ft 500 kts 317°
2026-04-13 14:56 50.50053 11.89258 27955 ft 501 kts 317°
2026-04-13 14:57 50.52680 11.85657 26869 ft 501 kts 316°
2026-04-13 14:57 50.55260 11.82116 26003 ft 497 kts 316°
2026-04-13 14:57 50.57848 11.78557 25144 ft 493 kts 316°
2026-04-13 14:58 50.62997 11.71465 23369 ft 489 kts 316°
2026-04-13 14:58 50.65541 11.67950 22412 ft 484 kts 316°
2026-04-13 14:58 50.68049 11.64470 21501 ft 479 kts 316°
2026-04-13 14:58 50.70540 11.61010 20598 ft 475 kts 316°
2026-04-13 14:59 50.73008 11.57581 19732 ft 470 kts 317°
2026-04-13 14:59 50.75441 11.54202 19204 ft 460 kts 317°
2026-04-13 14:59 50.77818 11.50903 18659 ft 451 kts 316°
2026-04-13 14:59 50.80123 11.47697 17999 ft 445 kts 316°
2026-04-13 15:00 50.82435 11.44472 17244 ft 441 kts 316°
2026-04-13 15:00 50.84724 11.41274 16511 ft 437 kts 316°
2026-04-13 15:00 50.86988 11.38101 15801 ft 433 kts 316°
2026-04-13 15:00 50.89229 11.34951 15120 ft 429 kts 316°
2026-04-13 15:01 50.91451 11.31823 14420 ft 426 kts 316°
2026-04-13 15:01 50.93656 11.28718 13745 ft 422 kts 316°
2026-04-13 15:01 50.95816 11.25678 13025 ft 419 kts 316°
2026-04-13 15:01 50.97980 11.22629 12312 ft 414 kts 316°
2026-04-13 15:02 51.00123 11.19605 11610 ft 410 kts 317°
2026-04-13 15:02 51.02220 11.16579 10936 ft 405 kts 313°
2026-04-13 15:02 51.03903 11.13086 10565 ft 390 kts 298°
2026-04-13 15:02 51.05014 11.09284 10436 ft 370 kts 287°
2026-04-13 15:03 51.05589 11.05423 10313 ft 350 kts 276°
2026-04-13 15:03 51.05899 11.01668 10199 ft 335 kts 275°
2026-04-13 15:03 51.06193 10.98067 10075 ft 322 kts 275°
2026-04-13 15:03 51.06468 10.94641 9956 ft 311 kts 275°
2026-04-13 15:04 51.06734 10.91292 9844 ft 300 kts 274°
2026-04-13 15:04 51.06987 10.88062 9693 ft 290 kts 274°
2026-04-13 15:04 51.07233 10.84901 9381 ft 286 kts 274°
2026-04-13 15:04 51.07476 10.81770 9023 ft 285 kts 274°
2026-04-13 15:05 51.07719 10.78656 8651 ft 283 kts 274°
2026-04-13 15:05 51.07962 10.75556 8280 ft 282 kts 275°
2026-04-13 15:05 51.08204 10.72467 7903 ft 280 kts 275°
2026-04-13 15:05 51.08440 10.69436 7537 ft 279 kts 275°
2026-04-13 15:06 51.08626 10.66343 7176 ft 275 kts 265°
2026-04-13 15:06 51.08161 10.63504 6836 ft 268 kts 239°
2026-04-13 15:06 51.06938 10.61329 6474 ft 264 kts 213°
2026-04-13 15:06 51.05248 10.60286 6068 ft 263 kts 189°
2026-04-13 15:07 51.03432 10.59930 5630 ft 263 kts 185°
2026-04-13 15:07 51.01655 10.60379 5268 ft 261 kts 153°
2026-04-13 15:07 51.00379 10.62369 4883 ft 262 kts 117°
2026-04-13 15:07 51.00064 10.65186 4442 ft 264 kts 86°
2026-04-13 15:08 51.00191 10.68085 4056 ft 261 kts 95°
2026-04-13 15:08 50.99978 10.70874 3923 ft 249 kts 99°
2026-04-13 15:08 50.99736 10.73562 3644 ft 244 kts 98°
2026-04-13 15:08 50.99523 10.76207 3331 ft 237 kts 97°
2026-04-13 15:09 50.99331 10.78679 3030 ft 221 kts 97°
2026-04-13 15:09 50.99148 10.81021 2748 ft 207 kts 97°
2026-04-13 15:09 50.98975 10.83223 2480 ft 194 kts 96°
2026-04-13 15:09 50.98815 10.85254 2202 ft 177 kts 96°
2026-04-13 15:10 50.98673 10.87061 1959 ft 155 kts 95°
2026-04-13 15:10 50.98545 10.88677 1734 ft 142 kts 95°
2026-04-13 15:10 50.98426 10.90192 1537 ft 137 kts 94°
2026-04-13 15:10 50.98308 10.91686 1368 ft 137 kts 95°
2026-04-13 15:11 50.98190 10.93180 1173 ft 136 kts 95°
2026-04-13 15:11 50.98071 10.94632 1035 ft 128 kts 95°
2026-04-13 15:11 50.97993 10.95687 1025 ft 56 kts 97°
2026-04-13 15:11 50.97951 10.96203 1025 ft 29 kts 97°
2026-04-13 15:12 50.97912 10.96300 1027 ft 8 kts 185°
2026-04-13 15:12 50.97862 10.96287 1028 ft 6 kts 189°
2026-04-13 15:12 50.97822 10.96277 1028 ft 7 kts 189°
2026-04-13 15:12 50.97783 10.96269 1028 ft 5 kts 185°
2026-04-13 15:13 50.97749 10.96264 1028 ft 5 kts 185°
2026-04-13 15:13 50.97718 10.96257 1028 ft 4 kts 188°
2026-04-13 15:13 50.97678 10.96250 1028 ft 6 kts 187°
2026-04-13 15:13 50.97644 10.96242 1028 ft 4 kts 188°
2026-04-13 15:14 50.97618 10.96234 1028 ft 3 kts 201°
2026-04-13 15:14 50.97606 10.96205 1026 ft 3 kts 241°
2026-04-13 15:14 50.97591 10.96168 1025 ft 3 kts 235°
2026-04-13 15:14 50.97580 10.96144 1027 ft 2 kts 234°
2026-04-13 15:15 50.97575 10.96132 1028 ft 1 kts 234°